Terminal Aerodrome Forecast
Issued by NWS

Home | Current Version | Previous Version | Text Only | Print | Product List | Glossary On
Versions: 1 2 3 4 5 6 7 8 9 10 11 12 13 14 15 16 17 18 19 20 21 22 23 24
000
FTUS45 KREV 040533
TAFCXP
TAF
KCXP 040533Z 0406/0506 VRB04KT P6SM FEW120 SCT200
     FM041900 10009KT P6SM SCT120 BKN200
     FM042200 25011KT P6SM SCT120 BKN200
     FM050300 29006KT P6SM SCT120 BKN200=

USA.gov is the U.S. government's official web portal to all federal, state and local government web resources and services.